[[{"header":{"parameterUnit":"m.s-1","parameterCategory":1,"la1":30.2991,"la2":30.254,"lo1":-89.0895,"lo2":-89.0444,"dy":0.0017,"dx":0.0017,"nx":28,"ny":28,"refTime":"2025-12-23T03:00:00:Z","depth":0,"parameterNumber":2,"parameterNumberName":"U-component_of_WINDS"},"data":[0,0,0,0,0,0,0,0,0,0,0,0,0,0,0,0,0,0,0,0,0,0,0,0,0,0,0,0,0,0,0,0,0,0,0,0,0,0,0,0,0,0,0,0,0,0,0,0,0,0,0,0,0,0,0,0,0,0,-2.2462,-2.2463,0,-2.255,-2.2551,-2.2552,-2.2539,-2.2537,-2.2536,-2.2534,-2.2628,-2.2632,-2.2636,0,0,0,0,0,0,0,0,0,0,0,0,0,-2.2287,-2.229,-2.2462,-2.2463,-2.2464,-2.255,-2.2551,-2.2553,-2.2539,-2.2537,-2.2535,-2.2533,-2.2627,-2.2632,-2.2636,0,0,0,0,0,0,0,0,0,0,0,0,0,-2.2368,-2.2291,-2.2462,-2.2468,-2.2469,-2.255,-2.2551,-2.2553,-2.2539,-2.2537,-2.2535,-2.2533,-2.2625,-2.2631,-2.2637,-2.2719,0,0,-2.2655,-2.2657,0,0,0,0,0,0,0,0,-2.2363,-2.2374,-2.2466,-2.2468,-2.2469,-2.2531,-2.2524,-2.2609,-2.254,-2.2513,-2.2534,-2.2531,-2.2598,-2.2606,-2.2628,-2.2723,-2.2727,-2.2655,-2.2659,-2.2661,-2.2663,0,0,0,0,0,0,0,-2.2358,-2.2371,-2.2497,-2.2467,-2.2469,-2.2468,-2.2477,-2.254,-2.2567,-2.2515,-2.2514,-2.2525,-2.2599,-2.2622,-2.263,-2.2728,-2.2655,-2.266,-2.2664,-2.2666,-2.2897,-2.2899,0,0,0,0,0,0,-2.235,-2.2366,-2.2494,-2.25,-2.241,-2.2473,-2.2483,-2.2514,-2.2566,-2.2572,-2.2526,-2.2524,-2.2613,-2.2623,-2.2633,-2.2733,-2.2661,-2.2667,-2.267,-2.2894,-2.2897,-2.29,0,0,0,0,0,0,-2.2346,-2.2362,-2.2491,-2.2433,-2.2449,-2.2478,-2.2513,-2.2517,-2.254,-2.2575,-2.258,-2.2545,-2.2612,-2.2625,-2.2697,-2.2736,-2.267,-2.2675,-2.2891,-2.2895,-2.2899,-2.2933,0,0,0,0,0,0,-2.2341,-2.236,-2.239,-2.2433,-2.2452,-2.2552,-2.2515,-2.252,-2.255,-2.2547,-2.2594,-2.26,-2.2611,-2.2689,-2.2703,-2.2743,-2.2679,-2.2888,-2.2893,-2.2898,-2.2928,-2.2937,-2.2945,0,0,0,0,0,-2.2335,-2.2397,-2.2392,-2.2408,-2.249,-2.2555,-2.2566,-2.2576,-2.2553,-2.2584,-2.2607,-2.2598,-2.2729,-2.2696,-2.2713,-2.2754,-2.2886,-2.2892,-2.2897,-2.2925,-2.2936,-2.2945,0,0,0,0,0,0,-2.2359,-2.2403,-2.2398,-2.2475,-2.2511,-2.2552,-2.2592,-2.2587,-2.2632,-2.2627,-2.264,-2.2651,-2.2725,-2.2747,-2.2709,-2.2837,-2.2804,-2.2814,-2.282,-2.283,-2.2839,-2.2832,-2.2684,0,0,0,0,0,-2.2373,-2.242,-2.2456,-2.2521,-2.254,-2.2563,-2.2591,-2.2596,-2.2635,-2.265,-2.2678,-2.2717,-2.2767,-2.28,-2.2848,-2.2932,-2.2943,-2.2969,-2.2977,-2.2984,-2.2992,-2.3039,-2.3052,-2.292,-2.2919,-2.2919,0,0,-2.2403,-2.2432,-2.2462,-2.2527,-2.2555,-2.2606,-2.2576,-2.263,-2.2668,-2.2659,-2.2729,-2.2751,-2.2796,-2.2874,-2.2911,-2.2895,-2.3031,-2.2991,-2.2996,-2.3001,-2.3046,-2.3059,-2.307,-2.2924,-2.2923,-2.2922,0,0,-2.2483,-2.2509,-2.2567,-2.2596,-2.2639,-2.2654,-2.2668,-2.2711,-2.2725,-2.2795,-2.279,-2.2836,-2.2922,-2.2954,-2.2981,-2.3075,-2.3069,-2.309,-2.3134,-2.318,-2.3191,-2.32,-2.3234,-2.3247,-2.3098,-2.3098,-2.3099,0,-2.2515,-2.2588,-2.2597,-2.2652,-2.2682,-2.2675,-2.2734,-2.2763,-2.282,-2.2842,-2.2823,-2.2931,-2.2961,-2.3048,-2.307,-2.3093,-2.311,-2.3085,-2.3188,-2.3198,-2.3206,-2.324,-2.3252,-2.3101,-2.3101,-2.31,-2.31,0,-2.2626,-2.2678,-2.2719,-2.2774,-2.2808,-2.2865,-2.2884,-2.2918,-2.292,-2.2938,-2.3011,-2.3046,-2.3101,-2.3122,-2.3126,-2.3211,-2.32,-2.3185,-2.3152,-2.3221,-2.3253,-2.3265,-2.3104,-2.3103,-2.3103,-2.3102,0,0,-2.2723,-2.2782,-2.2797,-2.2822,-2.287,-2.2911,-2.2969,-2.3022,-2.3051,-2.3091,-2.3141,-2.3214,-2.3201,-2.3232,-2.3239,-2.328,-2.3353,-2.326,-2.3261,-2.3277,-2.345,-2.3462,-2.3476,-2.3349,-2.3352,-2.3354,-2.3447,0,-2.2808,-2.2908,-2.2918,-2.3008,-2.3057,-2.3052,-2.3102,-2.3138,-2.3157,-2.3202,-2.3223,-2.3275,-2.3253,-2.3272,-2.3311,-2.3336,-2.3388,-2.3329,-2.3397,-2.34,-2.3387,-2.3492,-2.3504,-2.359,-2.3459,-2.3461,-2.3463,0,-2.292,-2.2963,-2.3057,-2.31,-2.312,-2.3165,-2.3216,-2.3258,-2.33,-2.331,-2.3346,-2.3348,-2.3409,-2.3374,-2.346,-2.3419,-2.3448,-2.3465,-2.3468,-2.3475,-2.3436,-2.3503,-2.3618,-2.3631,-2.3482,-2.348,-2.3479,0,-2.2983,-2.3064,-2.3131,-2.3153,-2.3203,-2.3235,-2.3258,-2.3297,-2.3329,-2.3373,-2.3394,-2.3446,-2.3474,-2.3515,-2.3532,-2.3505,-2.3617,-2.3583,-2.3629,-2.3629,-2.3654,-2.3652,-2.3775,-2.3671,-2.3671,-2.3671,-2.367,0,-2.3077,-2.3135,-2.316,-2.3201,-2.3267,-2.3279,-2.3345,-2.3366,-2.3401,-2.3448,-2.3448,-2.3492,-2.3511,-2.3559,-2.3573,-2.3643,-2.3655,-2.3667,-2.367,-2.3667,-2.3666,-2.3687,-2.3682,-2.3674,-2.3673,-2.3673,-2.3672,0,-2.3157,-2.3176,-2.3249,-2.3291,-2.3303,-2.335,-2.3387,-2.3428,-2.3446,-2.3505,-2.352,-2.3549,-2.3606,-2.3626,-2.3696,-2.3705,-2.3786,-2.3784,-2.3772,-2.3773,-2.3818,-2.3814,-2.396,-2.398,-2.3861,-2.3863,-2.3864,0,-2.3217,-2.3261,-2.3308,-2.3338,-2.3362,-2.3412,-2.3444,-2.3459,-2.3493,-2.3544,-2.3579,-2.3635,-2.3681,-2.3772,-2.38,-2.3854,-2.3854,-2.3901,-2.3862,-2.3858,-2.3856,-2.3853,-2.3858,-2.3909,-2.391,-2.3911,-2.3912,0,-2.332,-2.3327,-2.3373,-2.3422,-2.3461,-2.3501,-2.354,-2.3565,-2.3586,-2.3624,-2.3682,-2.3717,-2.3788,-2.3844,-2.3899,-2.3925,-2.3923,-2.3924,-2.3937,-2.3935,-2.3927,-2.3933,-2.3793,-2.392,-2.3919,-2.3919,-2.3918,-2.3918,-2.3392,-2.3432,-2.3471,-2.3523,-2.3553,-2.359,-2.3631,-2.3654,-2.3702,-2.3759,-2.3765,-2.3827,-2.387,-2.3943,-2.3971,-2.4021,-2.4009,-2.4028,-2.4033,-2.4038,-2.4042,-2.3918,-2.4031,-2.4031,-2.4031,-2.4031,-2.4031,0,-2.3496,-2.3521,-2.3568,-2.3622,-2.3664,-2.3656,-2.37,-2.3735,-2.3789,-2.3828,-2.3873,-2.394,-2.3995,-2.4027,-2.4083,-2.4117,-2.4118,-2.4131,-2.413,-2.4136,-2.4049,-2.4032,-2.413,-2.413,-2.413,-2.413,-2.413,-2.413,-2.3555,-2.3623,-2.3635,-2.3718,-2.3743,-2.3803,-2.3828,-2.3863,-2.3894,-2.3968,-2.4013,-2.4034,-2.4071,-2.413,-2.4181,-2.4189,-2.421,-2.4225,-2.4233,-2.4152,-2.4142,-2.4132,-2.4116,-2.423,-2.423,-2.4315,-2.4316,-2.4317]},{"header":{"parameterUnit":"m.s-1","parameterCategory":1,"la1":30.2991,"la2":30.254,"lo1":-89.0895,"lo2":-89.0444,"dy":0.0017,"dx":0.0017,"nx":28,"ny":28,"refTime":"2025-12-23T03:00:00:Z","depth":0,"parameterNumber":3,"parameterNumberName":"V-component_of_WINDS"},"data":[0,0,0,0,0,0,0,0,0,0,0,0,0,0,0,0,0,0,0,0,0,0,0,0,0,0,0,0,0,0,0,0,0,0,0,0,0,0,0,0,0,0,0,0,0,0,0,0,0,0,0,0,0,0,0,0,0,0,1.4369,1.437,0,1.4417,1.4418,1.4418,1.4406,1.4405,1.4404,1.4403,1.4452,1.4454,1.4456,0,0,0,0,0,0,0,0,0,0,0,0,0,1.4266,1.4268,1.4369,1.437,1.437,1.4417,1.4418,1.4419,1.4406,1.4405,1.4403,1.4402,1.4451,1.4454,1.4456,0,0,0,0,0,0,0,0,0,0,0,0,0,1.4312,1.4269,1.4369,1.4369,1.437,1.4417,1.4418,1.4419,1.4406,1.4405,1.4403,1.4402,1.445,1.4453,1.4457,1.4506,0,0,1.4467,1.4468,0,0,0,0,0,0,0,0,1.431,1.4316,1.4369,1.437,1.437,1.4404,1.44,1.4448,1.4406,1.4392,1.4403,1.4401,1.4437,1.4441,1.4453,1.4508,1.451,1.4467,1.4469,1.447,1.4471,0,0,0,0,0,0,0,1.4307,1.4314,1.4388,1.437,1.437,1.4368,1.4373,1.4409,1.4422,1.4393,1.4393,1.4399,1.4437,1.445,1.4454,1.4511,1.4467,1.447,1.4472,1.4473,1.4611,1.4612,0,0,0,0,0,0,1.4303,1.4312,1.4387,1.439,1.4336,1.4371,1.4376,1.4395,1.4422,1.4424,1.44,1.4398,1.4445,1.4451,1.4456,1.4517,1.447,1.4473,1.4475,1.4609,1.4611,1.4613,0,0,0,0,0,0,1.4301,1.431,1.4385,1.435,1.436,1.4374,1.4395,1.4396,1.441,1.4426,1.4429,1.4411,1.4444,1.4451,1.4494,1.4519,1.4475,1.4478,1.4607,1.461,1.4612,1.4639,0,0,0,0,0,0,1.4298,1.4309,1.4328,1.4351,1.4362,1.4422,1.4396,1.4398,1.4415,1.4413,1.4437,1.444,1.4444,1.4489,1.4497,1.4522,1.448,1.4605,1.4608,1.4611,1.4636,1.4642,1.4647,0,0,0,0,0,1.4294,1.4333,1.4329,1.4338,1.4385,1.4423,1.4429,1.4433,1.4417,1.4436,1.4448,1.4439,1.4514,1.4494,1.4503,1.4529,1.4603,1.4607,1.4611,1.4633,1.4641,1.4647,0,0,0,0,0,0,1.4311,1.4336,1.4331,1.4378,1.4399,1.4421,1.4445,1.444,1.4465,1.4462,1.4466,1.4471,1.4515,1.4526,1.4503,1.4579,1.4557,1.4562,1.4571,1.4578,1.4583,1.458,1.4483,0,0,0,0,0,1.4321,1.4349,1.4369,1.4409,1.4419,1.443,1.4447,1.4448,1.4469,1.4478,1.4492,1.4513,1.4541,1.456,1.4587,1.4637,1.4643,1.466,1.4666,1.467,1.4675,1.4705,1.4713,1.4625,1.4625,1.4625,0,0,1.434,1.4357,1.4375,1.4413,1.4429,1.4459,1.4438,1.447,1.4493,1.4483,1.4524,1.4536,1.4559,1.4606,1.4628,1.4617,1.4701,1.4675,1.4678,1.4681,1.4709,1.4718,1.4725,1.4628,1.4627,1.4627,0,0,1.4391,1.4406,1.4442,1.4459,1.4483,1.4491,1.4499,1.4523,1.453,1.4572,1.4565,1.4592,1.4641,1.4659,1.4674,1.4734,1.4728,1.4742,1.4772,1.4801,1.4808,1.4814,1.4837,1.4845,1.4747,1.4747,1.4747,0,1.4412,1.4457,1.4461,1.4494,1.4512,1.4505,1.4542,1.4558,1.459,1.4602,1.459,1.4652,1.4667,1.4719,1.4734,1.4746,1.4757,1.474,1.4806,1.4813,1.4818,1.484,1.4849,1.4749,1.4749,1.4749,1.4748,0,1.4483,1.4514,1.454,1.4573,1.4593,1.4628,1.4637,1.4657,1.4657,1.4666,1.471,1.4728,1.4759,1.4772,1.4771,1.4824,1.4817,1.4805,1.4783,1.4829,1.4849,1.4858,1.4752,1.4751,1.475,1.475,0,0,1.4546,1.458,1.459,1.4606,1.4633,1.4658,1.4693,1.4724,1.4742,1.4765,1.4795,1.4837,1.4827,1.4845,1.4846,1.4871,1.492,1.4857,1.4857,1.4869,1.4981,1.4991,1.5001,1.4915,1.4917,1.4918,1.498,0,1.46,1.4663,1.4667,1.4724,1.4754,1.4748,1.4779,1.48,1.4809,1.4837,1.4847,1.4878,1.4861,1.4872,1.4896,1.4909,1.4942,1.4904,1.4945,1.4946,1.494,1.5011,1.5021,1.5078,1.4988,1.4989,1.499,0,1.4672,1.4699,1.4758,1.4783,1.4796,1.4824,1.4854,1.488,1.4903,1.4909,1.4929,1.4928,1.4965,1.494,1.4992,1.4966,1.4983,1.4992,1.4994,1.4999,1.4972,1.5019,1.5096,1.5106,1.5003,1.5002,1.5001,0,1.4714,1.4764,1.4807,1.482,1.485,1.487,1.4883,1.4905,1.4924,1.4951,1.4963,1.4993,1.501,1.5034,1.5041,1.5022,1.5093,1.5069,1.51,1.51,1.5116,1.5115,1.5198,1.5124,1.5124,1.5124,1.5124,0,1.4776,1.4813,1.4827,1.4853,1.4895,1.49,1.4941,1.4954,1.4974,1.5003,1.4999,1.5027,1.5034,1.5063,1.5069,1.5112,1.5119,1.5125,1.5127,1.5127,1.5126,1.5138,1.5135,1.5126,1.5126,1.5125,1.5125,0,1.483,1.484,1.4887,1.4912,1.4919,1.4949,1.497,1.4996,1.5006,1.5043,1.5052,1.5067,1.5101,1.5111,1.5151,1.5155,1.5206,1.5203,1.5199,1.5199,1.523,1.5228,1.5325,1.5339,1.5255,1.5256,1.5256,0,1.4869,1.4898,1.4926,1.4946,1.496,1.4992,1.5012,1.5018,1.5039,1.5069,1.5092,1.5126,1.5153,1.5208,1.5223,1.5255,1.5253,1.5285,1.5258,1.5258,1.5256,1.5255,1.5259,1.5291,1.5292,1.5293,1.5293,0,1.4938,1.4942,1.4971,1.5003,1.5027,1.5052,1.5076,1.5092,1.5102,1.5126,1.5162,1.5183,1.5225,1.526,1.5292,1.5306,1.5302,1.5302,1.5311,1.5312,1.5309,1.5312,1.5215,1.5299,1.5299,1.5298,1.5298,1.5298,1.4987,1.5013,1.5038,1.5071,1.509,1.5113,1.5139,1.5152,1.5182,1.5217,1.5219,1.5258,1.5283,1.5326,1.5342,1.5372,1.5363,1.5376,1.5379,1.5383,1.5386,1.5303,1.5378,1.5378,1.5378,1.5378,1.5377,0,1.5057,1.5073,1.5103,1.5138,1.5164,1.5158,1.5185,1.5207,1.5242,1.5265,1.5293,1.5334,1.5368,1.5386,1.5419,1.5441,1.544,1.545,1.5449,1.5453,1.5392,1.5381,1.545,1.545,1.545,1.545,1.545,1.545,1.5097,1.5141,1.5149,1.5203,1.5219,1.5257,1.5273,1.5295,1.5314,1.5361,1.5389,1.54,1.5422,1.5457,1.5488,1.5493,1.5506,1.5517,1.5521,1.5464,1.5457,1.545,1.544,1.552,1.552,1.5579,1.558,1.558]}]]